El Paso, TX

8:55 AM MST on December 13, 2017 (GMT -0700)
El Paso International

Weather History for KELP - February, 2014

Change the Weather History Date:

Tuesday, February 25, 2014

  Actual Average Record
Temperature  
Mean Temperature 62 °F 52 °F  
Max Temperature 74 °F 66 °F 83 °F (2009)
Min Temperature 50 °F 39 °F 18 °F (1974)
Degree Days  
Heating Degree Days 3 13  
Month to date heating degree days 224 382  
Since 1 July heating degree days 1780 2067  
Cooling Degree Days 0 0  
Month to date cooling degree days 6 0  
Year to date cooling degree days 6 0  
Growing Degree Days 12 (Base 50)    
Moisture  
Dew Point 24 °F    
Average Humidity 24    
Maximum Humidity 34    
Minimum Humidity 14    
Precipitation  
Precipitation 0.00 in 0.01 in 0.48 in (1982)
Month to date precipitation T 0.42  
Year to date precipitation T 0.82  
Snow  
Snow 0.00 in - - ()
Month to date snowfall 0.0  
Since 1 July snowfall T  
Snow Depth 0.00 in    
Sea Level Pressure  
Sea Level Pressure 29.87 in    
Wind  
Wind Speed 12 mph (SW)    
Max Wind Speed 29 mph    
Max Gust Speed 36 mph    
Visibility 10 miles    
Events      
T = Trace of Precipitation, MM = Missing Value Source: NWS Daily Summary

Daily Weather History Graph

Daily Weather History Graph

Search for Another Location

Airport or City:

Trip Planner

Search our weather history database for the weather conditions in past years. The results will help you decide how hot, cold, wet, or windy it might be!

Date:

Astronomy

Feb. 25, 2014 Rise Set
Actual Time 6:37 AM MST 6:00 PM MST
Civil Twilight 6:12 AM MST 6:25 PM MST
Nautical Twilight 5:44 AM MST 6:53 PM MST
Astronomical Twilight 5:15 AM MST 7:21 PM MST
Moon 3:24 AM MST (2/25) 2:18 PM MST (2/25)
Length of Visible Light 12h 12m
Length of Day
11h 23m
Waning Crescent, 17% of the Moon is Illuminated
Feb 25
Waning Crescent
Mar 1
New
Mar 8
First Quarter
Mar 16
Full
Mar 23
Last Quarter

Hourly Weather History & Observations

Time (MST) Temp. Dew Point Humidity Pressure Visibility Wind Dir Wind Speed Gust Speed Precip Events Conditions
12:51 AM 59.0 °F 17.1 °F 20% 29.87 in 10.0 mi West 3.5 mph - N/A   Scattered Clouds
1:51 AM 55.0 °F 17.1 °F 23% 29.88 in 10.0 mi Calm Calm - N/A   Mostly Cloudy
2:51 AM 51.1 °F 15.1 °F 24% 29.87 in 10.0 mi SE 5.8 mph - N/A   Mostly Cloudy
3:51 AM 51.1 °F 17.1 °F 26% 29.87 in 10.0 mi East 6.9 mph - N/A   Scattered Clouds
4:51 AM 51.1 °F 19.0 °F 28% 29.86 in 10.0 mi SSE 5.8 mph - N/A   Scattered Clouds
5:51 AM 51.1 °F 19.0 °F 28% 29.89 in 10.0 mi Calm Calm - N/A   Mostly Cloudy
6:51 AM 51.1 °F 19.0 °F 28% 29.89 in 10.0 mi Calm Calm - N/A   Mostly Cloudy
7:51 AM 55.9 °F 19.9 °F 25% 29.91 in 10.0 mi Calm Calm - N/A   Mostly Cloudy
8:51 AM 61.0 °F 19.9 °F 21% 29.93 in 10.0 mi SSW 8.1 mph - N/A   Mostly Cloudy
9:51 AM 64.9 °F 21.9 °F 19% 29.94 in 10.0 mi SSW 10.4 mph - N/A   Overcast
10:51 AM 69.1 °F 21.9 °F 17% 29.92 in 10.0 mi South 10.4 mph - N/A   Mostly Cloudy
11:51 AM 71.1 °F 21.9 °F 16% 29.88 in 10.0 mi SSW 12.7 mph - N/A   Mostly Cloudy
12:51 PM 73.0 °F 21.9 °F 15% 29.84 in 10.0 mi SW 11.5 mph - N/A   Mostly Cloudy
1:51 PM 72.0 °F 21.9 °F 15% 29.82 in 10.0 mi WSW 12.7 mph 17.3 mph N/A   Mostly Cloudy
2:51 PM 73.0 °F 25.0 °F 17% 29.81 in 10.0 mi West 15.0 mph 24.2 mph N/A   Overcast
3:51 PM 73.0 °F 24.1 °F 16% 29.81 in 10.0 mi West 9.2 mph - N/A   Overcast
4:51 PM 72.0 °F 25.0 °F 17% 29.81 in 10.0 mi WSW 19.6 mph 25.3 mph N/A   Overcast
5:51 PM 71.1 °F 28.0 °F 20% 29.83 in 10.0 mi WSW 15.0 mph - N/A   Overcast
6:51 PM 70.0 °F 25.0 °F 18% 29.84 in 10.0 mi WSW 21.9 mph 27.6 mph N/A   Overcast
7:51 PM 66.9 °F 28.9 °F 24% 29.87 in 10.0 mi WSW 19.6 mph 28.8 mph N/A   Overcast
8:51 PM 64.9 °F 33.1 °F 31% 29.89 in 10.0 mi WSW 26.5 mph 32.2 mph N/A   Overcast
9:51 PM 64.0 °F 33.1 °F 31% 29.89 in 10.0 mi West 20.7 mph 29.9 mph N/A   Overcast
10:51 PM 62.1 °F 34.0 °F 35% 29.88 in 10.0 mi WSW 21.9 mph - N/A   Overcast
11:51 PM 61.0 °F 35.1 °F 38% 29.87 in 10.0 mi WSW 21.9 mph 33.4 mph N/A   Overcast